Date,TemperatureHighF,TemperatureAvgF,TemperatureLowF,DewpointHighF,DewpointAvgF,DewpointLowF,HumidityHigh,HumidityAvg,HumidityLow,PressureMaxIn,PressureMinIn,WindSpeedMaxMPH,WindSpeedAvgMPH,GustSpeedMaxMPH,PrecipitationSumIn
2012-1-1,41.5,33.1,27.3,36.7,20.5,15.0,83,60,51,29.50,28.79,21,7,21,0.14
2012-1-2,26.2,22.3,16.3,14.2,9.5,6.2,68,58,50,29.70,29.47,17,4,17,0.00
2012-1-3,34.3,25.0,12.2,17.4,12.4,4.8,74,60,46,29.68,29.19,17,3,17,0.00
2012-1-4,44.4,34.7,26.4,28.7,22.5,15.4,72,61,52,29.36,29.17,10,1,10,0.00
2012-1-5,54.3,41.9,29.1,36.7,29.7,21.8,74,63,51,29.24,28.97,10,2,10,0.00
2012-1-6,56.5,46.7,35.8,38.3,32.8,27.9,74,59,48,29.14,28.94,10,1,10,0.00
2012-1-7,46.0,37.1,27.3,32.3,26.6,20.2,76,66,56,29.47,29.15,8,1,8,0.00
2012-1-8,41.9,35.0,26.4,31.8,26.8,20.8,79,72,65,29.58,29.49,6,0,6,0.00
2012-1-9,48.4,36.6,25.3,33.0,27.4,20.6,83,70,55,29.48,29.25,19,3,19,0.00
2012-1-10,53.8,41.2,28.9,35.5,28.7,22.2,78,62,47,29.29,29.01,13,1,13,0.00
2012-1-11,54.9,43.5,28.2,33.8,29.1,20.7,73,58,41,28.98,28.79,12,1,12,0.00
2012-1-12,26.2,15.6,12.7,17.8,9.1,6.7,78,75,70,29.00,28.84,15,4,15,0.00
2012-1-13,21.4,16.5,9.7,11.9,8.3,2.1,78,70,64,29.32,29.02,14,3,14,0.00
2012-1-14,32.2,24.1,8.2,17.8,13.2,1.9,76,63,54,29.46,29.26,8,0,8,0.02
2012-1-15,41.5,34.9,20.7,29.1,25.4,14.9,78,69,61,29.47,29.14,18,6,18,0.05
2012-1-16,48.6,40.8,32.9,39.5,33.8,25.9,83,76,69,29.11,28.89,10,2,10,0.00
2012-1-17,34.7,22.8,12.0,30.6,16.0,4.7,85,75,70,29.54,28.87,14,4,14,0.07
2012-1-18,30.4,22.7,7.5,18.1,13.2,1.5,77,67,59,29.55,29.05,16,4,16,0.00
2012-1-19,27.1,10.1,3.9,19.2,-1.6,-7.0,72,59,50,29.43,29.06,13,4,13,0.00
2012-1-20,17.4,13.7,5.4,10.9,4.9,-4.8,81,68,60,29.43,29.19,14,3,14,0.00
2012-1-21,27.1,21.0,12.6,18.3,13.8,7.1,80,74,69,29.48,29.20,15,2,15,0.00
2012-1-22,39.6,33.2,18.9,36.6,29.8,13.2,89,87,78,29.17,28.59,13,4,13,0.02
2012-1-23,40.8,31.5,28.2,37.8,26.0,21.9,89,80,73,29.25,28.56,22,6,22,0.02
2012-1-24,37.2,30.3,25.9,26.3,22.2,19.6,79,72,62,29.56,29.25,8,1,8,0.00
2012-1-25,37.6,30.8,24.4,29.2,24.7,19.7,83,78,70,29.54,29.25,16,2,16,0.00
2012-1-26,39.2,33.8,30.9,34.0,29.7,26.3,86,85,81,29.23,28.96,7,1,7,0.00
2012-1-27,39.7,31.8,23.4,31.2,26.4,19.2,87,80,68,29.24,29.00,11,1,11,0.00
2012-1-28,39.7,32.7,23.5,27.2,23.2,17.4,80,68,59,29.39,29.18,15,5,15,0.00
2012-1-29,36.7,31.5,26.4,22.9,20.2,17.6,75,63,56,29.46,29.23,11,1,11,0.00
2012-1-30,57.6,44.8,29.8,40.1,32.9,21.5,73,64,50,29.32,29.03,19,4,19,0.00
2012-1-31,58.8,49.4,38.8,50.0,42.3,32.9,82,77,71,29.22,29.01,18,3,18,0.00
2012-2-1,44.8,36.1,30.4,36.4,30.8,26.2,87,81,72,29.39,29.23,6,0,6,0.00
2012-2-2,53.6,39.9,25.5,41.6,32.7,21.6,86,76,59,29.58,29.39,7,0,7,0.00
2012-2-3,44.1,36.5,32.2,38.3,32.9,28.7,89,87,80,29.62,29.46,14,3,14,0.02
2012-2-4,38.8,37.1,34.5,34.9,32.9,29.3,89,85,79,29.48,29.38,13,3,13,0.11
2012-2-5,43.7,36.8,28.2,34.4,29.9,23.4,84,76,69,29.56,29.44,11,2,11,0.00
2012-2-6,31.8,29.4,24.1,26.7,24.8,19.9,85,83,80,29.50,29.39,8,1,8,0.00
2012-2-7,33.6,30.2,23.5,30.1,26.4,19.4,88,86,82,29.64,29.41,14,2,14,0.00
2012-2-8,33.3,28.4,21.0,22.7,19.3,14.6,82,69,61,29.67,29.58,8,1,8,0.00
2012-2-9,37.9,27.9,16.3,25.7,19.9,10.6,79,72,60,29.57,29.30,12,2,12,0.00
2012-2-10,33.4,26.9,18.7,28.0,19.2,7.4,81,73,59,29.56,29.18,17,5,17,0.00
2012-2-11,26.1,21.2,10.8,5.5,3.3,-0.3,64,46,38,29.75,29.58,17,4,17,0.00
2012-2-12,36.3,26.2,12.7,11.7,8.0,2.5,64,47,33,29.72,29.45,10,3,10,0.00
2012-2-13,34.3,30.4,22.1,27.5,22.0,8.8,84,71,56,29.41,29.04,13,3,13,0.00
2012-2-14,37.9,34.1,30.4,32.0,28.8,26.1,86,81,76,29.20,29.02,12,2,12,0.07
2012-2-15,42.4,37.0,28.2,36.7,32.2,24.3,87,83,79,29.24,29.15,11,1,11,0.33
2012-2-16,47.3,38.9,30.0,35.6,29.7,22.1,89,71,51,29.41,29.21,10,2,10,0.00
2012-2-17,54.0,41.0,26.1,37.5,29.4,20.2,79,64,50,29.40,29.24,17,3,17,0.00
2012-2-18,41.5,35.8,24.6,25.8,22.4,18.4,77,59,48,29.48,29.35,12,3,12,0.00
2012-2-19,43.3,36.5,23.2,27.5,22.8,15.9,76,58,47,29.44,29.35,10,2,10,0.00
2012-2-20,46.4,40.1,25.7,29.6,26.7,17.8,77,59,48,29.44,28.99,20,6,20,0.07
2012-2-21,48.9,39.5,33.8,36.2,30.7,25.5,86,72,54,29.00,28.85,18,3,18,0.15
2012-2-22,52.7,42.7,34.2,37.3,32.0,26.8,78,66,52,28.92,28.66,10,1,10,0.00
2012-2-23,38.8,36.6,33.1,34.7,32.2,27.2,88,84,78,28.72,28.63,11,2,11,0.31
2012-2-24,35.8,30.3,23.9,29.9,23.6,16.8,89,76,65,29.29,28.72,0,0,0,0.05
2012-2-25,32.9,26.9,18.3,21.6,17.1,10.5,78,67,61,29.54,29.30,11,2,11,0.00
2012-2-26,57.7,47.5,24.1,38.1,32.3,17.0,74,56,47,29.40,29.14,20,5,20,0.00
2012-2-27,40.3,32.5,25.3,24.7,20.5,16.4,70,61,52,29.69,29.39,14,3,14,0.00
2012-2-28,52.3,40.7,28.9,40.5,30.4,20.4,82,67,50,29.65,28.81,17,5,17,0.09
2012-2-29,51.1,43.2,34.7,47.0,32.5,26.6,87,66,53,28.99,28.67,34,9,34,0.08
2012-3-1,50.4,40.5,33.8,35.3,30.8,26.9,78,69,55,29.13,28.90,11,2,11,0.00
2012-3-2,38.5,34.7,31.5,31.9,29.6,23.6,86,82,73,28.98,28.68,17,4,17,0.09
2012-3-3,34.3,32.0,28.6,24.2,22.1,20.4,73,67,62,29.13,28.97,16,5,16,0.00
2012-3-4,36.7,30.2,20.5,25.5,21.2,13.9,81,69,58,29.34,29.09,9,1,9,0.00
2012-3-5,40.5,30.2,13.1,28.3,21.3,7.5,81,70,59,29.59,29.31,16,2,16,0.07
2012-3-6,69.6,54.7,34.7,45.8,36.9,26.3,71,53,37,29.29,29.03,26,7,26,0.00
2012-3-7,68.7,59.7,40.5,51.5,46.7,34.8,80,63,54,29.15,29.01,22,6,22,0.02
2012-3-8,47.7,38.6,31.8,32.9,25.0,21.0,80,59,42,29.54,29.19,10,2,10,0.00
2012-3-9,47.1,37.4,27.5,24.4,16.0,13.0,63,42,33,29.80,29.57,10,2,10,0.00
2012-3-10,63.5,52.9,30.9,36.6,31.6,16.5,62,45,36,29.63,29.41,23,5,23,0.00
2012-3-11,68.2,59.7,46.2,45.8,41.3,32.1,78,52,39,29.44,29.16,22,5,22,0.02
2012-3-12,64.2,55.8,49.3,53.3,49.1,43.3,87,79,65,29.17,29.02,18,3,18,0.12
2012-3-13,73.9,59.9,43.0,54.1,47.3,39.2,88,66,48,29.35,29.23,12,1,12,0.00
2012-3-14,79.7,67.9,53.4,64.0,57.2,47.2,81,69,58,29.22,29.12,16,4,16,0.00
2012-3-15,83.5,71.4,58.8,65.0,59.8,54.0,85,68,52,29.26,29.19,12,2,12,0.00
2012-3-16,83.1,70.4,57.0,65.8,57.9,49.8,78,65,54,29.28,29.18,16,3,16,0.26
2012-3-17,83.1,72.5,59.5,65.3,58.4,50.4,84,62,49,29.26,29.14,18,3,18,0.26
2012-3-18,83.8,74.7,58.3,64.2,60.2,50.0,81,61,49,29.24,29.12,17,4,17,0.26
2012-3-19,81.7,71.8,63.1,66.9,61.0,56.4,84,70,54,29.18,29.01,19,6,19,0.31
2012-3-20,82.2,71.8,57.0,61.8,55.5,50.2,81,58,41,29.21,29.08,25,5,25,0.00
2012-3-21,86.2,73.2,58.6,61.8,56.0,50.5,79,57,37,29.28,29.20,12,2,12,0.26
2012-3-22,71.2,65.2,60.6,60.1,57.3,54.3,84,76,57,29.27,29.20,15,2,15,0.48
2012-3-23,70.7,61.2,51.6,56.6,52.1,47.5,87,73,54,29.20,29.04,6,0,6,0.00
2012-3-24,70.9,62.7,50.5,58.5,55.6,45.8,90,78,64,29.23,29.04,7,0,7,0.00
2012-3-25,77.5,69.9,52.7,59.7,55.0,49.2,88,61,46,29.32,29.21,8,1,8,0.00
2012-3-26,60.4,49.1,43.0,50.7,35.6,32.4,79,60,48,29.54,29.31,21,3,21,0.00
2012-3-27,78.1,63.7,46.2,59.0,49.3,34.4,73,60,52,29.35,29.04,26,6,26,0.00
2012-3-28,74.5,63.0,48.6,54.7,41.7,35.7,78,48,30,29.26,29.08,12,2,12,0.00
2012-3-29,63.3,54.6,46.6,44.3,40.2,36.7,69,59,49,29.32,29.12,11,3,11,0.00
2012-3-30,63.1,54.6,46.8,41.3,1.7,0.0,78,3,53,29.13,0.00,9,2,14,0.09
2012-3-31,69.1,59.8,46.0,49.7,34.6,0.0,63,41,49,0.00,0.00,13,3,13,0.00
2012-4-1,85.3,73.9,54.5,66.4,60.9,47.5,84,65,52,0.00,0.00,16,2,16,0.02
2012-4-2,81.5,67.6,50.9,63.6,55.9,45.3,82,67,54,0.00,0.00,17,3,17,0.00
2012-4-3,84.4,70.0,55.9,65.1,57.0,47.9,85,65,49,0.00,0.00,16,3,16,0.00
2012-4-4,71.8,59.7,48.4,45.1,36.1,25.6,68,43,30,0.00,0.00,15,4,15,0.00
2012-4-5,64.2,53.0,42.6,39.9,33.1,26.0,59,47,35,29.37,0.00,14,3,14,0.00
2012-4-6,66.9,52.8,34.0,38.3,31.4,21.2,65,46,33,29.52,29.38,9,2,9,0.00
2012-4-7,67.1,58.1,41.5,46.5,42.6,27.6,82,58,41,29.46,29.38,14,2,14,0.00
2012-4-8,71.2,61.4,38.1,44.0,35.4,30.9,83,40,26,29.59,29.31,15,4,15,0.00
2012-4-9,67.6,57.1,42.4,34.6,30.2,23.4,56,38,26,29.37,29.25,12,2,12,0.00
2012-4-10,58.6,47.6,34.3,27.0,23.3,18.9,56,39,28,29.43,29.33,16,3,16,0.00
2012-4-11,61.2,47.3,30.7,31.0,25.1,17.8,59,43,31,29.57,29.44,12,2,12,0.00
2012-4-12,69.6,56.2,35.1,37.1,31.5,22.1,60,41,29,29.51,29.33,11,1,11,0.00
2012-4-13,55.8,52.0,47.8,44.5,40.9,28.7,76,66,40,29.36,29.19,18,4,18,0.27
2012-4-14,72.9,63.3,51.1,62.2,56.3,43.9,86,78,68,29.19,28.83,18,2,18,0.22
2012-4-15,73.6,68.9,61.3,63.3,61.0,53.8,86,76,68,28.92,28.72,14,3,14,0.74
2012-4-16,60.6,54.0,48.2,53.2,41.2,36.4,78,62,49,29.44,28.71,21,6,21,0.00
2012-4-17,70.9,57.6,39.7,46.4,41.5,34.1,81,57,41,29.60,29.45,9,1,9,0.00
2012-4-18,78.4,65.5,49.6,55.8,49.4,39.3,74,57,43,29.44,29.17,19,3,19,0.00
2012-4-19,72.7,65.8,57.9,56.6,51.0,47.4,69,59,48,29.18,28.89,13,2,13,0.00
2012-4-20,64.4,46.4,41.7,53.8,38.3,34.3,83,73,59,29.29,28.88,14,5,14,0.10
2012-4-21,62.1,54.7,36.3,42.2,38.8,31.0,81,56,43,29.31,29.18,6,0,6,0.00
2012-4-22,60.1,53.4,43.3,39.3,33.0,27.5,74,46,38,29.40,29.15,11,3,11,0.00
2012-4-23,64.2,57.2,38.5,41.4,37.0,27.1,71,48,36,29.39,29.15,16,4,16,0.00
2012-4-24,79.9,67.3,46.0,53.9,47.2,34.4,68,50,40,29.12,28.85,7,1,7,0.00
2012-4-25,84.0,72.8,53.4,62.3,56.3,44.0,71,57,47,28.91,28.76,15,2,15,0.00
2012-4-26,69.6,62.7,51.6,53.2,44.1,35.3,81,52,36,29.34,28.87,12,4,12,0.00
2012-4-27,62.1,53.9,42.3,36.7,29.4,24.3,60,40,29,29.45,29.17,19,4,19,0.02
2012-4-28,55.9,50.5,42.6,45.9,42.4,31.2,79,74,52,29.39,29.10,14,3,14,0.38
2012-4-29,52.0,49.6,44.4,48.2,44.4,38.5,87,82,73,29.40,29.23,12,2,12,0.84
2012-4-30,57.2,55.2,50.7,52.5,50.3,45.4,90,84,78,29.23,29.15,5,0,5,0.05
2012-5-1,63.5,58.1,47.5,59.1,54.3,43.5,90,87,84,29.23,29.03,8,1,8,0.45
2012-5-2,80.4,69.8,60.6,69.8,63.5,57.3,89,81,68,29.16,28.97,17,1,17,0.55
2012-5-3,85.6,77.5,65.5,69.6,66.9,59.2,84,71,58,29.16,29.05,16,2,16,0.20
2012-5-4,82.2,73.2,61.7,67.9,63.4,56.8,86,72,61,29.20,29.06,12,1,12,0.54
2012-5-5,83.8,73.9,58.8,69.0,64.1,53.7,86,72,59,29.20,29.13,13,2,13,0.00
2012-5-6,87.3,77.8,62.8,74.1,68.3,57.9,86,73,63,29.18,29.03,10,1,10,0.09
2012-5-7,75.4,66.6,60.6,61.2,55.2,48.8,88,69,48,29.18,29.05,8,2,8,0.87
2012-5-8,71.2,65.6,55.4,49.1,45.8,42.6,75,50,39,29.21,29.14,11,2,11,0.00
2012-5-9,71.2,63.7,48.6,50.5,46.0,41.8,79,54,40,29.23,29.17,8,2,8,0.00
2012-5-10,78.4,69.5,47.1,49.4,46.1,39.0,75,45,33,29.27,29.18,7,1,7,0.00
2012-5-11,85.5,75.7,53.8,59.9,55.2,41.0,67,50,41,29.35,29.24,14,2,14,0.00
2012-5-12,68.9,65.0,59.0,57.7,53.6,49.3,75,67,57,29.49,29.36,9,1,9,0.00
2012-5-13,78.6,71.4,54.0,52.5,48.3,41.8,79,45,35,29.51,29.36,9,1,9,0.00
2012-5-14,84.0,75.6,52.3,52.7,46.3,40.2,66,37,27,29.38,29.25,5,1,5,0.00
2012-5-15,90.0,78.9,57.9,57.8,53.7,43.5,67,43,31,29.25,29.08,16,3,16,0.05
2012-5-16,76.6,69.3,54.5,48.7,44.1,39.0,61,41,33,29.37,29.18,8,1,8,0.00
2012-5-17,83.5,74.2,51.1,48.3,43.2,34.6,54,34,28,29.37,29.22,10,2,10,0.00
2012-5-18,91.2,80.5,56.8,58.7,52.8,38.4,54,39,31,29.27,29.14,13,2,13,0.00
2012-5-19,93.0,83.2,65.1,64.7,60.0,49.7,64,46,35,29.24,29.15,16,2,16,0.00
2012-5-20,85.8,78.0,61.9,64.7,58.2,45.8,65,51,44,29.36,29.19,12,3,12,0.00
2012-5-21,77.9,69.6,50.9,46.8,43.9,40.1,66,40,32,29.46,29.34,14,3,14,0.00
2012-5-22,85.8,75.5,54.7,54.5,50.0,41.1,68,42,30,29.34,29.11,7,1,7,0.00
2012-5-23,87.6,79.8,58.3,56.4,52.9,44.6,61,40,34,29.11,28.90,15,2,15,0.00
2012-5-24,93.9,84.6,66.7,63.9,59.8,48.5,63,44,35,28.96,28.74,18,3,18,0.00
2012-5-25,88.9,75.7,59.4,59.9,55.3,52.6,79,51,35,29.27,28.98,8,2,8,0.00
2012-5-26,93.7,85.1,67.3,72.3,65.8,48.1,62,53,49,29.31,29.18,16,2,16,0.00
2012-5-27,97.3,89.9,75.0,71.6,66.3,60.7,72,47,37,29.18,29.02,12,2,12,0.00
2012-5-28,91.0,81.1,72.0,71.1,66.0,58.7,76,61,47,29.07,28.93,13,3,13,0.13
2012-5-29,83.7,77.1,59.7,59.0,50.7,42.6,70,41,29,29.15,29.08,14,2,14,0.00
2012-5-30,75.6,68.9,54.1,47.1,45.3,41.9,66,43,36,29.23,29.13,12,2,12,0.00
2012-5-31,61.7,51.5,49.1,47.4,44.8,41.5,84,78,54,29.21,29.11,10,2,10,1.29
2012-6-1,71.4,64.0,45.0,48.0,45.3,39.2,81,52,41,29.19,29.08,12,2,12,0.00
2012-6-2,74.5,68.3,55.0,57.2,53.9,44.8,73,60,53,29.08,29.02,9,1,9,0.08
2012-6-3,85.1,76.6,56.1,58.8,56.0,49.7,79,50,38,29.13,29.06,7,1,7,0.00
2012-6-4,81.1,74.4,62.8,63.4,59.1,54.4,75,59,50,29.16,29.03,14,2,14,0.00
2012-6-5,82.6,74.9,59.7,59.1,54.8,49.7,70,50,42,29.26,29.16,7,1,7,0.00
2012-6-6,82.2,73.8,56.5,57.1,52.6,45.8,69,49,38,29.33,29.24,8,0,8,0.00
2012-6-7,85.8,79.1,58.6,56.5,53.9,47.2,69,43,34,29.39,29.30,5,0,5,0.00
2012-6-8,89.4,81.9,62.2,59.4,56.8,49.6,64,43,35,29.33,29.15,7,1,7,0.00
2012-6-9,92.8,82.6,64.6,62.4,58.6,49.6,59,45,35,29.18,29.05,11,1,11,0.00
2012-6-10,90.5,84.7,70.3,68.8,65.0,57.2,64,52,46,29.15,29.05,17,2,17,0.00
2012-6-11,85.5,78.7,69.4,69.6,64.0,53.9,81,62,48,29.19,29.04,8,1,8,0.28
2012-6-12,77.4,71.4,58.8,53.0,49.1,45.8,69,46,39,29.38,29.19,12,2,12,0.00
2012-6-13,79.5,72.4,56.8,54.0,50.1,45.4,66,46,37,29.43,29.28,12,2,12,0.00
2012-6-14,91.4,80.7,60.1,61.4,57.1,45.5,60,46,35,29.30,29.15,12,2,12,0.00
2012-6-15,94.3,84.0,66.7,65.7,62.0,55.6,68,49,35,29.26,29.15,17,2,17,0.00
2012-6-16,91.2,77.1,67.6,74.7,67.8,62.6,85,74,56,29.25,29.12,13,1,13,1.09
2012-6-17,89.4,81.6,66.0,68.4,64.1,61.6,88,58,41,29.20,29.00,10,1,10,0.00
2012-6-18,93.4,87.4,73.9,73.9,70.6,66.7,78,58,50,29.02,28.90,14,3,14,0.00
2012-6-19,95.4,87.7,73.2,74.3,71.1,63.4,73,58,49,29.15,29.04,9,1,9,0.00
2012-6-20,94.8,88.5,74.1,73.4,70.8,64.7,72,56,48,29.22,29.07,14,2,14,0.00
2012-6-21,86.7,79.4,70.2,68.2,61.8,56.5,81,56,44,29.26,29.12,10,1,10,0.00
2012-6-22,87.8,80.7,62.6,61.2,58.9,54.7,75,48,38,29.30,29.20,10,1,10,0.00
2012-6-23,85.8,78.8,66.7,65.7,61.1,55.6,67,55,45,29.28,29.20,10,0,10,0.00
2012-6-24,91.0,79.6,66.4,73.8,68.0,58.4,83,69,55,29.31,29.15,9,1,9,2.47
2012-6-25,83.5,77.9,67.3,68.1,54.0,48.1,79,44,35,29.32,29.18,11,2,11,0.00
2012-6-26,86.5,78.2,54.7,61.8,57.6,42.5,65,50,42,29.30,29.14,10,1,10,0.00
2012-6-27,95.7,85.6,63.3,72.0,65.2,51.5,65,51,43,29.18,29.00,13,1,13,0.00
2012-6-28,99.0,92.3,77.0,82.4,77.6,66.2,74,63,55,29.12,29.03,12,2,12,0.00
2012-6-29,83.8,77.7,73.4,75.6,66.4,64.7,77,68,61,29.18,29.10,8,0,8,0.32
2012-6-30,90.3,84.3,69.4,75.2,72.8,63.6,85,69,60,29.11,29.05,6,0,6,0.60
2012-7-1,94.3,84.7,72.5,75.0,70.7,64.1,82,64,51,29.24,29.11,15,2,15,0.03
2012-7-2,98.2,90.6,74.3,77.6,74.8,67.5,79,61,50,29.23,29.14,10,0,10,0.00
2012-7-3,97.5,89.7,73.9,79.1,74.8,64.9,74,62,52,29.18,29.07,10,1,10,0.00
2012-7-4,100.0,92.9,78.1,78.1,75.2,69.7,75,57,47,29.16,29.09,16,1,16,0.00
2012-7-5,99.7,92.1,76.6,79.5,75.4,65.0,69,59,52,29.22,29.14,13,1,13,0.00
2012-7-6,102.4,94.1,79.5,78.9,76.5,70.4,76,58,46,29.25,29.18,14,1,14,0.00
2012-7-7,103.3,93.3,79.9,80.4,76.2,68.7,76,59,44,29.25,29.17,17,1,17,0.00
2012-7-8,90.3,84.3,71.4,68.9,63.4,57.2,68,50,43,29.34,29.24,9,2,9,0.00
2012-7-9,94.3,86.0,71.4,68.9,65.6,59.6,69,52,40,29.32,29.24,7,0,7,0.00
2012-7-10,87.1,80.0,70.3,66.6,62.7,58.4,72,56,43,29.35,29.27,11,1,11,0.00
2012-7-11,91.2,83.2,64.9,62.1,59.3,53.4,67,46,35,29.40,29.30,12,1,12,0.00
2012-7-12,95.9,87.2,66.7,70.3,65.4,55.2,66,49,39,29.32,29.24,9,0,9,0.00
2012-7-13,81.5,76.6,72.5,69.5,66.4,59.9,80,71,53,29.34,29.24,8,1,8,0.11
2012-7-14,92.5,85.1,70.3,72.3,69.7,65.3,84,61,51,29.32,29.22,7,0,7,0.00
2012-7-15,98.2,89.4,72.5,75.6,72.3,65.7,79,58,46,29.32,29.22,12,0,12,0.00
2012-7-16,98.6,89.5,75.4,76.8,72.7,64.9,72,59,47,29.26,29.09,7,1,7,0.00
2012-7-17,100.6,92.5,77.4,75.8,73.4,68.3,74,55,43,29.14,29.06,8,1,8,0.00
2012-7-18,103.3,95.0,78.1,77.7,74.5,67.3,69,52,42,29.16,29.04,13,1,13,0.00
2012-7-19,91.0,84.2,74.5,74.5,71.0,64.1,82,65,54,29.25,29.05,10,3,10,0.00
2012-7-20,87.1,79.4,69.6,68.4,65.9,62.2,78,64,52,29.37,29.25,8,1,8,0.00
2012-7-21,88.7,81.5,69.6,70.5,67.0,61.4,78,62,50,29.38,29.27,8,0,8,0.00
2012-7-22,96.6,88.0,73.4,73.8,69.3,62.5,70,55,46,29.37,29.21,15,1,15,0.00
2012-7-23,104.7,93.2,76.3,78.2,72.4,63.6,65,52,38,29.26,29.15,13,1,13,0.00
2012-7-24,95.5,89.0,79.7,74.1,70.9,66.9,69,56,49,29.25,29.11,11,2,11,0.00
2012-7-25,104.2,93.8,75.7,76.7,73.2,67.8,78,53,39,29.12,28.85,14,2,14,0.00
2012-7-26,93.0,83.6,73.6,75.9,69.2,60.4,82,64,43,29.07,28.91,10,2,10,0.71
2012-7-27,86.4,80.4,70.7,64.7,62.3,59.6,76,55,46,29.26,29.06,16,2,16,0.00
2012-7-28,84.6,77.0,66.4,68.0,64.7,59.3,79,66,55,29.41,29.27,6,0,6,0.00
2012-7-29,91.8,82.3,68.2,70.7,67.2,61.0,81,61,48,29.33,29.17,12,1,12,0.00
2012-7-30,95.7,87.7,71.6,75.3,71.4,62.3,73,59,48,29.19,29.13,12,0,12,0.00
2012-7-31,93.7,87.1,73.9,73.2,68.1,62.1,81,55,40,29.19,29.13,9,1,9,0.00
2012-8-1,96.1,87.6,70.9,71.8,67.4,61.5,73,52,39,29.22,29.09,7,0,7,0.00
2012-8-2,94.6,86.9,72.9,69.2,66.1,59.8,64,51,40,29.12,29.02,7,1,7,0.00
2012-8-3,96.8,88.3,70.0,74.5,70.9,61.8,79,57,45,29.12,29.05,9,1,9,0.00
2012-8-4,91.0,81.5,73.8,77.3,71.2,66.0,79,71,61,29.18,29.03,11,1,11,0.19
2012-8-5,84.9,78.3,64.9,66.6,61.3,56.6,81,57,45,29.40,29.21,12,1,12,0.00
2012-8-6,90.0,80.9,60.4,60.8,58.0,51.7,74,47,34,29.41,29.25,10,0,10,0.00
2012-8-7,98.4,87.7,66.6,69.4,65.1,52.4,63,48,36,29.25,29.16,13,1,13,0.00
2012-8-8,87.6,77.8,71.8,68.8,64.9,61.4,72,65,52,29.26,29.15,8,1,8,0.00
2012-8-9,85.3,77.1,65.8,69.4,64.9,57.8,83,67,56,29.17,29.09,12,2,12,0.00
2012-8-10,79.7,70.8,58.3,59.5,55.5,53.0,84,61,41,29.25,29.15,13,3,13,0.00
2012-8-11,82.8,73.9,57.7,55.9,53.6,49.1,73,50,38,29.30,29.23,8,1,8,0.00
2012-8-12,75.0,68.9,62.8,61.7,56.8,50.0,81,66,58,29.28,29.16,7,0,7,0.38
2012-8-13,73.4,67.9,62.8,62.2,60.3,57.2,87,77,67,29.24,29.13,10,1,10,0.68
2012-8-14,84.2,76.6,59.7,66.7,62.6,54.9,85,63,51,29.24,29.14,6,0,6,0.00
2012-8-15,89.1,80.0,64.0,66.0,62.8,56.0,76,57,45,29.22,29.07,9,2,9,0.00
2012-8-16,77.4,72.0,64.6,66.9,61.0,52.6,84,69,55,29.24,29.02,9,1,9,0.19
2012-8-17,79.3,70.6,54.7,55.3,52.8,47.9,80,55,42,29.31,29.24,8,1,8,0.00
2012-8-18,79.0,72.3,56.1,58.2,53.3,47.9,77,52,38,29.27,29.19,8,0,8,0.00
2012-8-19,80.8,72.7,58.8,57.5,54.4,50.9,75,54,41,29.25,29.17,10,1,10,0.00
2012-8-20,81.5,73.8,57.0,60.1,55.3,50.0,80,54,41,29.25,29.19,6,1,6,0.00
2012-8-21,84.4,75.5,55.6,57.5,52.3,46.4,74,46,33,29.32,29.24,6,0,6,0.00
2012-8-22,92.8,80.8,60.6,63.6,58.3,47.6,64,48,36,29.32,29.21,10,1,10,0.00
2012-8-23,95.7,85.9,66.9,66.1,61.1,52.7,61,44,34,29.30,29.19,6,1,6,0.00
2012-8-24,95.5,86.2,69.3,64.7,60.9,55.7,63,44,33,29.26,29.16,9,1,9,0.00
2012-8-25,94.6,84.5,68.4,65.8,62.6,54.5,69,49,33,29.25,29.15,14,1,14,0.00
2012-8-26,75.9,72.6,67.8,69.5,67.5,63.8,88,84,71,29.25,29.18,8,0,8,2.49
2012-8-27,89.2,79.7,64.9,71.9,65.8,61.1,89,65,43,29.37,29.24,8,1,8,0.00
2012-8-28,91.9,83.1,67.1,70.1,65.5,60.0,80,57,44,29.38,29.24,0,0,0,0.00
2012-8-29,93.9,84.4,68.7,69.0,65.9,60.5,75,55,44,29.31,29.19,14,1,14,0.00
2012-8-30,96.3,85.8,68.7,70.1,66.4,60.8,76,54,42,29.27,29.16,11,1,11,0.00
2012-8-31,88.7,81.6,70.3,72.6,69.1,58.7,76,66,57,29.30,29.21,4,0,4,0.00
2012-9-1,76.8,71.5,68.7,70.3,67.0,64.5,88,86,78,29.23,29.11,10,2,10,0.82
2012-9-2,85.6,78.5,67.8,73.2,70.2,64.1,88,76,65,29.16,29.09,7,1,7,0.00
2012-9-3,92.1,82.9,68.5,73.6,70.6,64.5,87,68,53,29.19,29.11,11,0,11,0.00
2012-9-4,94.8,87.6,74.1,75.6,72.3,67.6,83,61,50,29.15,29.04,15,0,15,0.00
2012-9-5,87.6,76.9,63.7,70.2,65.6,58.1,84,69,55,29.21,29.02,23,2,23,0.60
2012-9-6,85.3,77.5,66.0,66.7,57.7,53.5,82,52,36,29.24,29.10,8,1,8,0.00
2012-9-7,76.8,68.5,59.2,66.2,60.1,52.7,83,75,57,29.16,29.02,12,2,12,1.17
2012-9-8,73.9,66.9,51.6,53.6,51.2,46.0,81,58,46,29.26,29.09,8,1,8,0.00
2012-9-9,75.0,67.7,53.4,53.8,50.8,46.1,78,56,43,29.39,29.16,11,2,11,0.00
2012-9-10,82.6,71.9,54.3,58.0,53.5,44.8,74,54,40,29.45,29.30,8,1,8,0.00
2012-9-11,88.0,77.0,58.3,63.3,58.7,49.4,75,54,42,29.35,29.24,8,1,8,0.00
2012-9-12,89.6,78.9,61.9,65.5,60.2,53.5,74,54,40,29.37,29.28,10,1,10,0.00
2012-9-13,70.5,56.8,53.6,57.1,49.0,46.6,84,76,56,29.60,29.34,20,2,20,0.12
2012-9-14,76.3,64.8,48.4,55.8,50.0,43.9,84,61,40,29.62,29.54,6,0,6,0.00
2012-9-15,81.7,72.3,52.2,54.7,51.0,44.9,77,49,35,29.56,29.38,5,0,5,0.00
2012-9-16,79.7,70.6,52.9,55.5,52.8,44.5,74,55,42,29.39,29.20,8,0,8,0.00
2012-9-17,79.3,65.5,52.0,64.3,57.0,45.7,82,74,59,29.21,29.03,10,1,10,0.59
2012-9-18,65.5,57.8,44.8,45.1,40.6,37.5,81,54,39,29.28,29.14,11,2,11,0.00
2012-9-19,77.5,68.4,46.9,52.8,48.3,36.2,68,50,39,29.28,29.03,14,2,14,0.00
2012-9-20,72.9,64.8,52.2,48.0,41.4,37.9,65,44,32,29.20,29.13,7,1,7,0.00
2012-9-21,64.8,56.8,50.5,51.1,45.5,38.5,75,66,53,29.19,28.99,10,1,10,0.03
2012-9-22,61.7,54.4,45.3,42.8,37.9,32.9,82,54,45,29.46,29.07,12,2,12,0.00
2012-9-23,64.2,55.7,39.9,41.8,36.3,32.0,77,50,36,29.55,29.45,9,1,9,0.00
2012-9-24,74.5,62.9,41.0,45.1,40.6,30.6,69,46,33,29.47,29.14,9,1,9,0.00
2012-9-25,81.5,71.3,56.8,63.9,57.3,42.8,73,62,53,29.13,29.03,8,0,8,0.00
2012-9-26,75.0,66.0,54.0,57.1,50.7,42.8,80,59,44,29.36,29.11,7,1,7,0.00
2012-9-27,70.2,61.7,48.0,47.1,43.1,39.7,74,52,38,29.47,29.37,7,1,7,0.00
2012-9-28,71.4,60.1,44.4,48.7,43.6,37.0,78,56,39,29.46,29.35,7,0,7,0.00
2012-9-29,81.0,68.2,47.5,50.3,46.8,38.9,75,48,33,29.39,29.20,8,0,8,0.00
2012-9-30,76.6,67.5,49.1,51.0,47.4,39.8,70,50,38,29.23,29.13,6,0,6,0.00
2012-10-1,72.1,62.5,48.9,50.5,44.5,39.1,73,53,38,29.16,29.05,7,0,7,0.00
2012-10-2,73.9,64.6,48.7,49.9,44.6,40.3,74,50,33,29.15,29.06,6,1,6,0.00
2012-10-3,78.4,67.1,48.9,52.8,49.1,39.9,73,54,39,29.24,29.13,8,0,8,0.00
2012-10-4,66.7,54.3,44.2,54.7,45.8,39.1,83,74,55,29.42,29.23,10,1,10,0.23
2012-10-5,48.0,43.4,36.1,39.3,32.3,27.5,82,65,56,29.47,29.38,8,0,8,0.00
2012-10-6,47.8,42.5,31.1,32.2,29.4,23.2,74,60,52,29.47,29.39,9,1,9,0.00
2012-10-7,55.0,47.2,37.4,30.4,27.3,23.9,67,47,35,29.48,29.36,8,1,8,0.00
2012-10-8,63.3,53.2,36.0,38.5,34.3,23.7,67,50,38,29.36,29.19,16,2,16,0.00
2012-10-9,67.1,53.8,43.3,45.4,40.2,32.9,79,61,45,29.22,29.06,15,2,15,0.08
2012-10-10,57.2,48.7,34.3,36.5,30.8,27.1,77,51,37,29.43,29.24,12,2,12,0.03
2012-10-11,71.4,59.9,39.4,45.1,39.5,27.3,67,48,38,29.50,29.28,12,3,12,0.00
2012-10-12,61.3,52.9,39.0,33.9,31.0,24.5,57,44,33,29.67,29.42,10,2,10,0.00
2012-10-13,65.7,60.5,49.3,61.3,55.9,34.6,88,85,51,29.42,28.97,8,1,8,1.13
2012-10-14,64.2,55.4,47.5,59.9,50.7,42.2,89,84,79,29.12,28.71,14,2,14,1.39
2012-10-15,65.8,56.1,41.2,48.0,44.2,37.0,86,65,50,29.23,29.12,4,0,4,0.00
2012-10-16,77.5,66.3,48.7,56.7,50.9,40.4,75,58,47,29.16,28.71,14,2,14,0.00
2012-10-17,66.2,58.9,49.8,55.5,50.3,42.2,84,73,61,28.75,28.58,12,1,12,0.68
2012-10-18,49.8,45.9,44.4,41.9,39.2,36.1,85,77,60,28.69,28.64,17,4,17,0.32
2012-10-19,54.3,49.0,44.4,44.3,42.9,40.2,87,80,64,28.95,28.63,11,1,11,0.13
2012-10-20,57.6,50.2,42.8,46.0,42.2,38.0,88,75,61,29.14,28.96,5,0,5,0.00
2012-10-21,73.2,62.9,44.2,55.8,51.4,38.3,84,67,54,29.18,29.10,10,2,10,0.00
2012-10-22,67.8,65.2,60.1,63.5,61.0,52.6,89,86,74,29.15,29.05,19,1,19,0.28
2012-10-23,74.1,68.7,63.7,65.5,62.6,60.1,90,81,72,29.13,29.03,11,1,11,0.13
2012-10-24,82.2,74.0,62.2,68.3,64.1,57.3,85,72,61,29.12,29.01,13,2,13,0.00
2012-10-25,73.0,55.2,42.1,63.6,48.4,34.4,83,78,68,29.39,28.89,20,4,20,0.24
2012-10-26,50.7,42.6,32.2,31.8,28.8,25.5,77,59,47,29.60,29.42,13,3,13,0.00
2012-10-27,47.1,41.4,30.6,29.4,26.4,23.0,74,56,47,29.61,29.50,11,3,11,0.00
2012-10-28,52.3,43.4,31.1,33.6,28.1,21.4,68,55,45,29.56,29.49,11,2,11,0.00
2012-10-29,53.1,43.9,30.7,35.1,27.7,22.4,73,54,37,29.58,29.39,9,1,9,0.00
2012-10-30,54.7,44.8,33.8,28.9,24.6,22.0,65,47,30,29.38,29.13,17,4,17,0.00
2012-10-31,52.9,41.5,29.1,26.8,23.3,19.5,70,50,34,29.20,29.14,9,2,9,0.00
2012-11-1,61.2,49.4,34.0,40.5,33.1,19.7,65,54,45,29.19,29.08,8,1,8,0.00
2012-11-2,51.4,43.3,31.8,34.0,29.5,23.5,73,58,49,29.34,29.20,8,1,8,0.00
2012-11-3,52.7,45.3,37.6,37.2,33.1,27.3,71,63,54,29.45,29.31,8,1,8,0.00
2012-11-4,51.6,43.7,33.6,38.1,33.2,25.9,77,67,58,29.49,29.39,2,0,2,0.00
2012-11-5,49.3,44.2,39.9,34.6,32.3,30.1,74,63,55,29.41,29.33,13,1,13,0.00
2012-11-6,43.7,41.9,39.7,39.3,36.4,30.1,85,81,65,29.31,29.09,10,1,10,0.21
2012-11-7,43.9,41.8,39.4,37.2,35.1,33.9,85,77,72,29.40,29.13,11,2,11,0.05
2012-11-8,54.9,46.7,35.4,41.2,37.0,29.8,81,69,59,29.42,29.25,13,3,13,0.00
2012-11-9,62.4,53.7,42.4,48.8,44.2,35.7,78,71,61,29.25,29.12,9,2,9,0.00
2012-11-10,70.3,63.6,55.2,57.5,52.8,48.5,79,68,60,29.13,29.00,16,5,16,0.00
2012-11-11,63.3,49.3,33.1,55.1,42.7,26.0,83,78,66,29.29,28.90,16,4,16,0.76
2012-11-12,39.0,32.5,24.1,25.2,21.9,16.6,75,65,53,29.60,29.27,13,4,13,0.03
2012-11-13,46.0,36.9,23.2,28.4,24.3,16.7,77,61,49,29.74,29.61,10,1,10,0.00
2012-11-14,53.8,43.7,34.0,36.5,30.6,24.5,69,60,51,29.67,29.56,10,3,10,0.00
2012-11-15,55.8,44.3,33.3,36.1,30.7,25.5,74,60,44,29.59,29.52,8,1,8,0.00
2012-11-16,57.0,45.7,32.2,40.4,34.4,25.4,81,65,51,29.68,29.57,6,0,6,0.00
2012-11-17,57.7,47.4,34.2,38.4,33.1,27.0,75,58,47,29.72,29.61,12,3,12,0.00
2012-11-18,59.9,50.8,36.1,40.8,35.8,28.7,75,57,46,29.60,29.49,11,3,11,0.00
2012-11-19,52.5,47.7,43.0,45.7,40.1,32.8,80,75,63,29.47,29.31,12,2,12,0.03
2012-11-20,59.4,48.9,39.4,50.2,43.1,34.6,86,81,70,29.43,29.28,8,1,8,0.00
2012-11-21,61.0,49.5,38.1,50.9,42.9,34.0,86,78,62,29.46,29.28,11,3,11,0.00
2012-11-22,61.9,53.7,40.5,49.5,43.8,31.3,85,69,60,29.28,29.00,20,4,20,0.00
2012-11-23,39.0,29.9,23.5,31.5,16.9,14.1,74,58,51,29.54,29.27,19,3,19,0.00
2012-11-24,34.0,30.0,18.1,21.6,19.6,11.5,76,65,60,29.53,29.19,8,2,8,0.00
2012-11-25,45.0,38.5,29.8,28.4,25.8,21.2,71,60,51,29.32,29.08,11,1,11,0.00
2012-11-26,34.3,29.7,21.0,24.2,18.0,11.4,72,62,53,29.64,29.34,9,2,9,0.00
2012-11-27,38.1,29.0,15.6,21.1,16.3,7.8,72,59,48,29.67,29.49,10,1,10,0.00
2012-11-28,48.2,37.2,24.1,29.9,23.4,14.6,68,58,46,29.64,29.46,7,1,7,0.00
2012-11-29,55.2,43.6,30.2,38.6,32.0,22.5,74,64,52,29.46,29.24,10,2,10,0.00
2012-11-30,54.1,43.7,34.9,39.5,33.3,27.4,75,67,57,29.33,29.23,4,0,4,0.00
2012-12-1,57.9,52.6,34.9,51.6,46.7,27.8,83,81,73,29.31,29.08,12,2,12,0.05
2012-12-2,57.7,53.4,49.3,53.3,49.0,44.9,90,85,81,29.25,29.09,7,0,7,0.00
2012-12-3,68.2,61.2,48.4,61.5,54.8,43.1,91,80,69,29.20,28.96,21,4,21,0.05
2012-12-4,60.6,49.2,40.1,40.2,33.6,28.2,76,57,37,29.53,29.21,11,1,11,0.00
2012-12-5,45.3,37.7,28.2,29.2,24.7,19.7,71,60,48,29.64,29.36,12,3,12,0.00
2012-12-6,52.5,45.6,37.0,39.8,35.8,29.1,78,69,61,29.34,29.12,11,2,11,0.03
2012-12-7,41.5,40.2,36.9,36.0,34.7,32.4,85,81,78,29.19,29.10,8,0,8,0.08
2012-12-8,43.0,38.2,34.3,35.1,31.9,30.2,87,78,68,29.28,29.12,10,0,10,0.00
2012-12-9,43.0,37.9,28.0,38.8,33.3,21.7,87,84,77,29.23,29.00,14,2,14,0.05
2012-12-10,27.7,25.2,20.3,20.4,19.0,14.8,82,77,73,29.23,29.07,11,1,11,0.00
2012-12-11,37.6,29.5,18.7,26.0,21.1,13.5,81,71,61,29.36,29.21,11,1,11,0.00
2012-12-12,47.8,37.7,25.9,30.8,25.6,19.0,76,62,49,29.47,29.36,14,2,14,0.00
2012-12-13,49.3,39.7,30.4,30.5,26.1,21.4,71,59,48,29.44,29.30,17,2,17,0.00
2012-12-14,51.6,42.7,28.9,35.6,30.7,21.0,75,63,52,29.38,29.18,10,1,10,0.09
2012-12-15,49.3,46.9,40.6,45.5,43.0,35.3,88,86,77,29.14,28.75,20,3,20,0.46
2012-12-16,46.6,38.9,35.8,42.3,33.6,30.4,87,81,78,29.00,28.84,10,1,10,0.03
2012-12-17,35.8,33.3,30.2,30.8,29.0,25.5,86,84,82,28.98,28.92,6,0,6,0.00
2012-12-18,47.1,37.8,29.8,39.9,32.4,25.5,88,81,72,29.11,28.76,17,4,17,0.00
2012-12-19,38.1,36.1,33.6,33.4,31.4,28.6,88,83,79,29.25,28.84,12,2,12,0.36
2012-12-20,39.9,30.1,18.9,36.9,26.9,14.4,90,88,83,29.05,28.44,30,7,30,1.37
2012-12-21,25.7,18.7,12.6,16.4,11.4,7.4,82,73,65,29.49,29.08,10,2,10,0.00
2012-12-22,35.2,26.8,10.9,23.7,18.4,5.9,81,71,62,29.47,29.16,12,3,12,0.00
2012-12-23,32.4,25.4,16.2,21.7,18.3,11.5,82,74,63,29.25,29.15,10,3,10,0.00
2012-12-24,27.1,24.5,22.3,22.7,19.0,16.1,84,79,75,29.36,29.12,10,1,10,0.00
2012-12-25,24.1,19.5,14.4,18.1,12.1,8.7,82,73,67,29.58,29.39,17,6,17,0.00
2012-12-26,27.1,24.4,19.6,19.9,17.8,13.0,80,76,73,29.43,29.32,60,5,60,0.00
2012-12-27,35.4,26.4,13.6,24.6,18.9,8.2,79,73,62,29.45,29.31,6,0,6,0.00
2012-12-28,34.0,30.3,27.7,27.1,24.6,22.0,83,79,76,29.30,29.15,8,0,8,0.00
2012-12-29,25.5,21.0,13.8,19.2,14.3,7.6,80,75,71,29.47,29.23,11,2,11,0.00
2012-12-30,37.9,30.2,12.7,27.4,22.1,7.6,81,72,64,29.55,29.27,14,3,14,0.00
2012-12-31,34.3,34.3,34.3,25.5,25.5,25.5,70,70,70,29.28,29.27,6,2,6,0.00
2013-1-1,21.7,13.6,8.4,10.3,4.4,1.6,73,66,57,29.50,29.38,7,0,7,0.00